Location: Babice
(50.3480°N, 22.9363°E)
Time: 12:38:29
(UTC+00:00)

Okean 1 - Pass Details

Date: 14 July 2020
Orbit: 538 x 556 km, 82.5° (Epoch: 07 August)

Event Time Altitude Azimuth Distance (km) Brightness Sun altitude
Rises 00:16:35 0° 341° (NNW) 2,708 7.6 -14.5°
Reaches altitude 10° 00:18:55 10° 331° (NNW) 1,812 6.4 -14.4°
Maximum altitude 00:22:24 30° 269° (W) 988 4.4 -14.1°
Enters shadow 00:24:00 22° 229° (SW) 1,207 4.5 -14.0°
